Torna al catalogo

DELTA 1 R/B

AttivoHEO
NORAD 4298·ROCKET BODY·🇺🇸 United States

Lanciato Jan 15, 1970 da Cape Canaveral Space Force Station

Loading…

Prossimi Passaggi (prossime 24 ore)

TLE

AggiornatoSource: Space-Track

Epoca: Sep 14, 2026, 08:55 UTC

1 04298U 70003B   26257.37177405  .00004105  00000-0  21658-2 0  9993
2 04298  28.1144   5.5922 6497677 147.1957 279.0721  3.28311859566733

Traccia DELTA 1 R/B in tempo reale con AllMySat

Download on the App Store